Regional Weather Roundup
Issued by NWS Cleveland, OH

Home | Current Version | Previous Version | Graphics & Text | Print | Product List | Glossary On
Versions: 1 2 3 4 5 6 7 8 9 10 11 12 13 14 15 16 17 18 19 20 21 22 23 24 25 26 27 28 29 30 31 32 33 34 35 36 37 38 39 40 41 42 43 44 45 46 47 48 49 50
038
ASUS41 KCLE 280610
RWRCLE
OHIO REGIONAL WEATHER ROUNDUP
NATIONAL WEATHER SERVICE CLEVELAND, OH
200 AM EDT SUN AUG 28 2016

NOTE: "FAIR" INDICATES FEW OR NO CLOUDS BELOW 12,000 FEET WITH NO
SIGNIFICANT WEATHER AND/OR OBSTRUCTIONS TO VISIBILITY.

OHZ001>008-015>018-024>027-034-035-043-044-280700-
   NORTHWEST OHIO

CITY           SKY/WX    TMP DP  RH WIND       PRES   REMARKS
DEFIANCE       FAIR      72  68  87 CALM      30.13S FOG
FINDLAY        FAIR      70  66  87 SE3       30.13R
TOLEDO EXPRESS FAIR      68  68 100 CALM      30.13S FOG
TOLEDO EXEC    FAIR      71  70  96 CALM      30.13F FOG
LIMA           CLEAR     71  70  96 S7        30.15R
$$

OHZ009>014-019>023-028>033-038-089-280700-
   NORTHEAST OHIO

CITY           SKY/WX    TMP DP  RH WIND       PRES   REMARKS
CLE-HOPKINS    FAIR      71  67  87 CALM      30.15S
CLE-LAKEFRONT  FAIR      74  69  85 CALM      30.12S
CUY CO. ARPT   NOT AVBL
LORAIN-ELYRIA  FAIR      68  66  93 CALM      30.14S
ASHTABULA      FAIR      69  69 100 CALM      30.15S
AKRON-CANTON   CLOUDY    71  67  87 S3        30.16S
WOOSTER        FOG       66  65  96 CALM      30.16F VSB 1/2
MANSFIELD      CLEAR     69  68  96 S5        30.17S
YOUNGSTOWN     FAIR      70  67  90 CALM      30.16S
$$

OHZ042-051>053-060>062-070>072-077>081-280700-
  SOUTHWEST OHIO

CITY           SKY/WX    TMP DP  RH WIND       PRES   REMARKS
CINC-COVINGTON MOCLDY    74  73  97 N6        30.16S
CINC-LUNKEN    NOT AVBL
HAMILTON       CLEAR     70  69  97 CALM      30.15F
DAYTON         PTCLDY    72  69  90 S6        30.17S
WRIGHT-PAT AFB MOCLDY    71  71 100 SE2       30.15F
DAYTON GENERAL CLEAR     71  68  90 SE3       30.16S
WILMINGTON     PTCLDY    69  67  93 CALM      30.16F
$$

OHZ036-037-039>041-045>050-054>059-063>069-073>076-082>088-280700-
  CENTRAL AND SOUTHEAST OHIO

CITY           SKY/WX    TMP DP  RH WIND       PRES   REMARKS
COLUMBUS       MOCLDY    70  68  93 NE3       30.14F
OSU AIRPORT    CLEAR     70  69  97 CALM      30.15F
BOLTON FIELD   CLEAR     67  67 100 CALM      30.16S FOG
RICKENBACK AFB CLEAR     69  68  96 NE5       30.14F
NEWARK         PTCLDY    67  67 100 N3        30.15F
MARION         CLEAR     69  67  93 S3        30.16S
LANCASTER      PTCLDY    69  68  96 CALM      30.15F
ZANESVILLE     PTCLDY    70  67  90 CALM      30.15S
NEW PHILLY     CLOUDY    72  68  87 CALM      30.16S
$$




USA.gov is the U.S. government's official web portal to all federal, state and local government web resources and services.